Location: Fredericksburg
(30.2750°N, 98.8720°W)
Time: 16:21:04
(UTC-05:00)

ISS - All Passes

Search period start: 24 October 2014 00:00
Search period end: 02 November 2014 23:00
Orbit: 412 x 416 km, 51.6° (Epoch: 24 October)

Date Brightness Start Highest point End Pass type
(mag) Time Alt. Az. Time Alt. Az. Time Alt. Az.
24 Oct - 12:06:26 10° S 12:08:48 18° SE 12:11:11 10° E daylight
24 Oct - 13:42:27 10° W 13:45:20 27° NW 13:48:13 10° NNE daylight
24 Oct - 20:15:36 10° NNW 20:18:09 20° NE 20:20:42 10° E visible
24 Oct - 21:51:58 10° WNW 21:54:49 26° SW 21:57:40 10° S visible
25 Oct - 12:52:51 10° WSW 12:56:05 53° NW 12:59:21 10° NE daylight
25 Oct - 19:27:22 10° N 19:28:47 12° NE 19:30:12 10° ENE visible
25 Oct - 21:02:27 10° NW 21:05:43 58° SW 21:08:59 10° SSE visible
26 Oct - 12:03:36 10° SW 12:06:53 70° SE 12:10:12 10° NE daylight
26 Oct - 13:42:59 10° NW 13:43:53 11° NNW 13:44:47 10° NNW daylight
26 Oct - 20:13:13 10° NW 20:16:31 63° NE 20:19:48 10° SE visible
27 Oct - 11:14:45 10° SSW 11:17:43 31° SE 11:20:42 10° ENE daylight
27 Oct - 12:52:04 10° W 12:54:26 18° NW 12:56:47 10° N daylight
27 Oct - 19:24:12 10° NNW 19:27:12 31° NE 19:30:12 10° ESE visible
27 Oct - 21:01:33 10° W 21:03:40 16° SW 21:05:46 10° SSW visible
28 Oct - 10:26:32 10° SSE 10:28:34 15° SE 10:30:36 10° E daylight
28 Oct - 12:02:00 10° WSW 12:05:00 31° NW 12:08:01 10° NNE daylight
28 Oct - 18:35:26 10° N 18:37:46 18° NE 18:40:06 10° E daylight
28 Oct - 20:11:29 10° WNW 20:14:29 32° SW 20:17:29 10° SSE visible
29 Oct - 11:12:21 10° SW 11:15:38 65° NW 11:18:55 10° NE daylight
29 Oct - 17:47:26 10° NNE 17:48:13 11° NNE 17:48:59 10° NE daylight
29 Oct - 19:21:54 10° NW 19:25:13 72° SW 19:28:31 10° SE visible
30 Oct - 10:23:03 10° SSW 10:26:17 55° SE 10:29:32 10° NE daylight
30 Oct - 12:01:43 10° WNW 12:03:11 12° NW 12:04:40 10° N daylight
30 Oct - 18:32:35 10° NNW 18:35:50 51° NE 18:39:04 10° ESE daylight
31 Oct - 09:34:10 10° S 09:36:58 25° SE 09:39:45 10° ENE daylight
31 Oct - 11:11:01 10° W 11:13:35 21° NW 11:16:10 10° NNE daylight
31 Oct - 17:43:29 10° NNW 17:46:20 26° NE 17:49:10 10° E daylight
31 Oct - 19:20:24 10° W 19:22:51 19° SW 19:25:17 10° S visible
01 Nov - 08:46:09 10° SSE 08:47:39 13° SE 08:49:10 10° E daylight
01 Nov - 10:20:55 10° WSW 10:24:01 38° NW 10:27:09 10° NNE daylight
01 Nov - 16:54:40 10° N 16:56:42 15° NE 16:58:44 10° ENE daylight
01 Nov - 18:30:22 10° WNW 18:33:30 40° SW 18:36:37 10° SSE daylight
02 Nov - 08:31:12 10° SW 08:34:30 82° NW 08:37:49 10° NE daylight
02 Nov - 16:40:43 10° NW 16:44:02 89° NE 16:47:20 10° SE daylight
